Orbital Elements at Epoch 2459000.5 (2020-May-31.0) TDB
Reference: JPL 20 (heliocentric ecliptic J2000)
Element | Value | Uncertainty (1-sigma) | Units |
e | .1719886977417107 | 5.7524e-08 | |
a | 2.618207826776312 | 2.3486e-08 | au |
q | 2.1679056722319 | 1.6291e-07 | au |
i | 13.5861920194814 | 5.1509e-06 | deg |
node | 173.1084964272665 | 1.3534e-05 | deg |
peri | 182.9360964334022 | 1.7653e-05 | deg |
M | 123.0711915972102 | 1.2676e-05 | deg |
tp | 2458471.496547025844 (2018-Dec-18.99654703) | 5.0137e-05 | TDB |
period | 1547.407160027963 4.24 | 2.0821e-05 5.7e-08 | d yr |
n | .2326472368096671 | 3.1304e-09 | deg/d |
Q | 3.068509981320724 | 2.7526e-08 | au |
|
| | Orbit Determination Parameters
Additional Information
|